Lago Vista, TX

1:36 PM CDT on August 23, 2017 (GMT -0500)
Lago Vista

Weather History for KRYW - May, 2013

Change the Weather History Date:

Sunday, May 19, 2013

  Actual Average (KGTU) Record (KGTU)
Temperature  
Mean Temperature 81 °F -  
Max Temperature 91 °F 84 °F 95 °F (2008)
Min Temperature 71 °F 64 °F 50 °F (2002)
Cooling Degree Days 16    
Growing Degree Days 31 (Base 50)    
Moisture  
Dew Point 66 °F    
Average Humidity 66    
Maximum Humidity 83    
Minimum Humidity 41    
Precipitation  
Precipitation 0.00 in - - ()
Sea Level Pressure  
Sea Level Pressure 29.83 in    
Wind  
Wind Speed 10 mph (SSE)    
Max Wind Speed 16 mph    
Max Gust Speed 26 mph    
Visibility 10 miles    
Events      
Averages and records for this station are not official NWS values.
T = Trace of Precipitation, MM = Missing Value Source: NWS Daily Summary

Daily Weather History Graph

Daily Weather History Graph

Search for Another Location

Airport or City:

Trip Planner

Search our weather history database for the weather conditions in past years. The results will help you decide how hot, cold, wet, or windy it might be!

Date:

Astronomy

May. 19, 2013 Rise Set
Actual Time 6:35 AM CDT 8:22 PM CDT
Civil Twilight 6:08 AM CDT 8:48 PM CDT
Nautical Twilight 5:36 AM CDT 9:20 PM CDT
Astronomical Twilight 5:02 AM CDT 9:54 PM CDT
Moon 2:50 PM CDT (5/19) 2:34 AM CDT (5/19)
Length of Visible Light 14h 40m
Length of Day
13h 47m
Waxing Gibbous, 65% of the Moon is Illuminated
May 19
Waxing Gibbous
May 24
Full
May 31
Last Quarter
Jun 8
New
Jun 16
First Quarter

Hourly Weather History & Observations

Time (CDT) Temp. Heat Index Dew Point Humidity Pressure Visibility Wind Dir Wind Speed Gust Speed Precip Events Conditions
12:35 AM 73.4 °F - 62.6 °F 69% 29.88 in 10.0 mi South 8.1 mph - N/A   Clear
1:15 AM 73.4 °F - 62.6 °F 69% 29.88 in 10.0 mi SSE 9.2 mph 16.1 mph N/A   Clear
1:35 AM 73.4 °F - 62.6 °F 69% 29.87 in 10.0 mi SSE 6.9 mph - N/A   Clear
1:55 AM 71.6 °F - 64.4 °F 78% 29.87 in 10.0 mi South 8.1 mph 19.6 mph N/A   Clear
2:15 AM 71.6 °F - 64.4 °F 78% 29.86 in 10.0 mi South 9.2 mph 16.1 mph N/A   Clear
2:35 AM 71.6 °F - 64.4 °F 78% 29.86 in 10.0 mi SSE 10.4 mph 19.6 mph N/A   Clear
2:55 AM 71.6 °F - 66.2 °F 83% 29.86 in 10.0 mi SSE 9.2 mph 19.6 mph N/A   Scattered Clouds
3:15 AM 71.6 °F - 66.2 °F 83% 29.85 in 10.0 mi South 11.5 mph 21.9 mph N/A   Overcast
3:55 AM 71.6 °F - 66.2 °F 83% 29.85 in 10.0 mi SSE 10.4 mph 25.3 mph N/A   Overcast
4:15 AM 71.6 °F - 66.2 °F 83% 29.84 in 10.0 mi SSE 10.4 mph 19.6 mph N/A   Overcast
4:35 AM 71.6 °F - 66.2 °F 83% 29.85 in 10.0 mi SSE 10.4 mph 20.7 mph N/A   Mostly Cloudy
4:55 AM 71.6 °F - 66.2 °F 83% 29.86 in 10.0 mi South 9.2 mph 17.3 mph N/A   Overcast
5:15 AM 71.6 °F - 66.2 °F 83% 29.86 in 10.0 mi SSE 8.1 mph 17.3 mph N/A   Overcast
5:35 AM 71.6 °F - 66.2 °F 83% 29.86 in 10.0 mi SSE 8.1 mph 17.3 mph N/A   Overcast
5:55 AM 71.6 °F - 66.2 °F 83% 29.85 in 10.0 mi South 9.2 mph 16.1 mph N/A   Overcast
6:15 AM 71.6 °F - 66.2 °F 83% 29.85 in 10.0 mi SSE 9.2 mph 20.7 mph N/A   Overcast
6:35 AM 71.6 °F - 66.2 °F 83% 29.84 in 10.0 mi SSE 9.2 mph 17.3 mph N/A   Overcast
6:55 AM 71.6 °F - 66.2 °F 83% 29.85 in 10.0 mi South 12.7 mph 19.6 mph N/A   Overcast
7:15 AM 71.6 °F - 66.2 °F 83% 29.85 in 10.0 mi South 8.1 mph 21.9 mph N/A   Overcast
7:35 AM 71.6 °F - 66.2 °F 83% 29.86 in 10.0 mi South 13.8 mph 23.0 mph N/A   Overcast
7:55 AM 71.6 °F - 66.2 °F 83% 29.86 in 10.0 mi South 11.5 mph 24.2 mph N/A   Overcast
8:15 AM 73.4 °F - 66.2 °F 78% 29.86 in 10.0 mi South 12.7 mph 19.6 mph N/A   Overcast
8:35 AM 73.4 °F - 68.0 °F 83% 29.87 in 10.0 mi South 11.5 mph 21.9 mph N/A   Overcast
8:55 AM 73.4 °F - 68.0 °F 83% 29.86 in 10.0 mi South 12.7 mph 20.7 mph N/A   Overcast
9:15 AM 75.2 °F - 68.0 °F 78% 29.87 in 10.0 mi South 11.5 mph 20.7 mph N/A   Overcast
9:35 AM 77.0 °F - 68.0 °F 74% 29.87 in 10.0 mi SSE 15.0 mph 20.7 mph N/A   Overcast
9:55 AM 78.8 °F - 68.0 °F 69% 29.88 in 10.0 mi South 11.5 mph 19.6 mph N/A   Overcast
10:15 AM 78.8 °F - 68.0 °F 69% 29.87 in 10.0 mi South 11.5 mph 19.6 mph N/A   Overcast
10:35 AM 78.8 °F - 68.0 °F 69% 29.87 in 10.0 mi South 8.1 mph 23.0 mph N/A   Mostly Cloudy
10:55 AM 80.6 °F 83.2 °F 68.0 °F 65% 29.86 in 10.0 mi SSE 16.1 mph 26.5 mph N/A   Mostly Cloudy
11:15 AM 82.4 °F 85.4 °F 68.0 °F 62% 29.86 in 10.0 mi SSE 11.5 mph 23.0 mph N/A   Scattered Clouds
11:55 AM 84.2 °F 87.3 °F 68.0 °F 58% 29.87 in 10.0 mi South 12.7 mph 21.9 mph N/A   Mostly Cloudy
12:35 PM 86.0 °F 89.4 °F 68.0 °F 55% 29.86 in 10.0 mi South 5.8 mph 24.2 mph N/A   Scattered Clouds
12:55 PM 86.0 °F 89.4 °F 68.0 °F 55% 29.85 in 10.0 mi South 15.0 mph 21.9 mph N/A   Scattered Clouds
1:15 PM 86.0 °F 88.2 °F 66.2 °F 51% 29.85 in 10.0 mi South 11.5 mph 20.7 mph N/A   Mostly Cloudy
1:55 PM 87.8 °F 91.4 °F 68.0 °F 52% 29.83 in 10.0 mi SSE 12.7 mph 24.2 mph N/A   Mostly Cloudy
2:35 PM 89.6 °F 92.2 °F 66.2 °F 46% 29.81 in 10.0 mi SSE 8.1 mph 19.6 mph N/A   Mostly Cloudy
2:55 PM 89.6 °F 92.2 °F 66.2 °F 46% 29.81 in 10.0 mi South 16.1 mph 23.0 mph N/A   Scattered Clouds
3:15 PM 89.6 °F 91.1 °F 64.4 °F 43% 29.80 in 10.0 mi SSE 12.7 mph 23.0 mph N/A   Mostly Cloudy
3:55 PM 89.6 °F 91.1 °F 64.4 °F 43% 29.79 in 10.0 mi SSE 13.8 mph 24.2 mph N/A   Mostly Cloudy
4:15 PM 89.6 °F 91.1 °F 64.4 °F 43% 29.78 in 10.0 mi South 10.4 mph 23.0 mph N/A   Mostly Cloudy
4:35 PM 91.4 °F 93.2 °F 64.4 °F 41% 29.78 in 10.0 mi SSE 6.9 mph 19.6 mph N/A   Mostly Cloudy
4:55 PM 89.6 °F 91.1 °F 64.4 °F 43% 29.78 in 10.0 mi South 12.7 mph 20.7 mph N/A   Overcast
5:15 PM 87.8 °F 89.4 °F 64.4 °F 46% 29.77 in 10.0 mi SSW 12.7 mph 21.9 mph N/A   Overcast
5:35 PM 89.6 °F 91.1 °F 64.4 °F 43% 29.76 in 10.0 mi SSE 12.7 mph 20.7 mph N/A   Mostly Cloudy
5:55 PM 87.8 °F 89.4 °F 64.4 °F 46% 29.77 in 10.0 mi South 12.7 mph 20.7 mph N/A   Mostly Cloudy
6:15 PM 87.8 °F 89.4 °F 64.4 °F 46% 29.76 in 10.0 mi South 9.2 mph 19.6 mph N/A   Overcast
6:35 PM 87.8 °F 89.4 °F 64.4 °F 46% 29.76 in 10.0 mi South 9.2 mph 19.6 mph N/A   Overcast
6:55 PM 87.8 °F 89.4 °F 64.4 °F 46% 29.75 in 10.0 mi SSE 9.2 mph 17.3 mph N/A   Mostly Cloudy
7:15 PM 86.0 °F 87.3 °F 64.4 °F 48% 29.75 in 10.0 mi SE 9.2 mph 21.9 mph N/A   Scattered Clouds
7:35 PM 86.0 °F 87.3 °F 64.4 °F 48% 29.76 in 10.0 mi SE 13.8 mph 20.7 mph N/A   Clear
7:55 PM 84.2 °F 85.6 °F 64.4 °F 51% 29.77 in 10.0 mi SSE 8.1 mph 21.9 mph N/A   Scattered Clouds
8:15 PM 82.4 °F 83.9 °F 64.4 °F 54% 29.78 in 10.0 mi SSE 10.4 mph 18.4 mph N/A   Scattered Clouds
8:55 PM 82.4 °F 83.9 °F 64.4 °F 54% 29.80 in 10.0 mi SSE 11.5 mph 19.6 mph N/A   Overcast
9:15 PM 80.6 °F 82.3 °F 64.4 °F 58% 29.80 in 10.0 mi SSE 11.5 mph 21.9 mph N/A   Mostly Cloudy
9:35 PM 80.6 °F 82.3 °F 64.4 °F 58% 29.81 in 10.0 mi SE 16.1 mph 23.0 mph N/A   Scattered Clouds
9:55 PM 78.8 °F - 64.4 °F 61% 29.81 in 10.0 mi SE 13.8 mph 24.2 mph N/A   Clear
10:15 PM 78.8 °F - 64.4 °F 61% 29.82 in 10.0 mi SE 15.0 mph 23.0 mph N/A   Clear
10:55 PM 77.0 °F - 66.2 °F 69% 29.83 in 10.0 mi SSE 12.7 mph 26.5 mph N/A   Clear
11:15 PM 77.0 °F - 68.0 °F 74% 29.84 in 10.0 mi SSE 15.0 mph 23.0 mph N/A   Clear
11:35 PM 75.2 °F - 68.0 °F 78% 29.84 in 10.0 mi SSE 10.4 mph 21.9 mph N/A   Clear
11:55 PM 73.4 °F - 68.0 °F 83% 29.84 in 10.0 mi SSE 15.0 mph 24.2 mph N/A   Scattered Clouds